Weather in Starodubskoe

Russia / Stavropol Krai     44°33′59″N   44°01′35″E
temp.,
°C
wind,
m/s
gust,
m/s
humid.,
%
clouds,
%
prec.,
mm/h
press.,
hPa
HPBL,
m
5 august, thu
thu500:00+26w4653100 0.1 1014132
03:00+25nnw4855100 0.1 1013190
06:00+24nnw3767100 0.0 1015262
09:00+30ne34429 0.0 1014954
12:00+34ene45315 0.0 10131985
15:00+36ene4426100 0.0 10112860
18:00+34ene56270 0.0 10111769
21:00+29ne49371 0.0 1011165
6 august, fri
fri600:00+28ene611330 0.0 1010310
03:00+26e613380 0.0 1010356
06:00+25e512380 0.0 1011412
09:00+31ese79350 0.0 10101036
12:00+36e79250 0.0 10082294
15:00+37e88230 0.0 10062721
18:00+34e910280 0.0 10061074
21:00+27e714480 0.0 1007460
7 august, sat
sat700:00+25e51365100 0.0 1007417
03:00+23e3778100 0.0 1006209
06:00+23ene39775 0.0 1006312
09:00+30e57430 0.0 1005970
12:00+36ese67275 0.0 10031518
15:00+39ese57200 0.0 10012307
18:00+36ene10142384 0.0 1001776
21:00+28e7134589 0.0 1004381
8 august, sun
sun800:00+25nw2260100 0.1 100625
03:00+23wnw3569100 0.5 1006110
06:00+23w4971100 0.2 1008292
09:00+30nw89425 0.2 10081210
12:00+34nnw783297 0.0 10081580
15:00+35nw672869 0.0 10082082
18:00+34nw773161 0.0 10081651
21:00+27w485126 0.0 1011163
9 august, mon
mon900:00+25w3660100 0.0 1012122
03:00+24w36614 0.0 1012117
06:00+24nw26673 0.0 1012176
09:00+30nnw2241100 0.0 1013734
12:00+35nnw1131100 0.0 10121784
15:00+36ene32270 0.0 10102499
18:00+31wnw5745100 0.8 1011197
21:00+21w111690100 7.7 1015518